Location: Chequamegon National Forest
(46.1070°N, 90.8420°W)
Time: 05:07:03
(UTC-05:00)

ISS - All Passes

Search period start: 21 September 2014 00:00
Search period end: 01 October 2014 00:00
Orbit: 413 x 417 km, 51.6° (Epoch: 21 September)

Date Brightness Start Highest point End Pass type
(mag) Time Alt. Az. Time Alt. Az. Time Alt. Az.
21 Sep - 03:00:50 10° SW 03:04:05 53° SSE 03:07:21 10° ENE visible
21 Sep - 04:37:43 10° W 04:40:53 39° NNW 04:44:04 10° ENE visible
21 Sep - 06:15:06 10° WNW 06:18:07 31° N 06:21:09 10° ENE visible
21 Sep - 07:51:52 10° WNW 07:55:12 72° NNE 07:58:31 10° ESE daylight
21 Sep - 09:29:05 10° W 09:31:37 20° SW 09:34:09 10° S daylight
22 Sep - 02:12:15 10° SSW 02:15:16 33° SE 02:18:19 10° ENE night (unlit)
22 Sep - 03:48:38 10° W 03:51:54 51° NNW 03:55:10 10° ENE visible
22 Sep - 05:26:04 10° WNW 05:29:04 30° N 05:32:04 10° ENE visible
22 Sep - 07:02:58 10° WNW 07:06:15 51° NNE 07:09:30 10° E daylight
22 Sep - 08:39:50 10° WNW 08:42:52 32° SW 08:45:52 10° SSE daylight
23 Sep - 01:23:56 10° S 01:26:29 21° SE 01:29:03 10° E night (unlit)
23 Sep - 02:59:35 10° WSW 03:02:55 71° NNW 03:06:15 10° ENE visible
23 Sep - 04:36:58 10° WNW 04:39:59 31° N 04:43:01 10° ENE visible
23 Sep - 06:14:02 10° WNW 06:17:13 39° NNE 06:20:23 10° E visible
23 Sep - 07:50:45 10° WNW 07:54:01 53° SW 07:57:15 10° SE daylight
24 Sep - 00:36:11 10° SSE 00:37:44 13° SE 00:39:17 10° ESE night (unlit)
24 Sep - 02:10:37 10° SW 02:13:56 77° SSE 02:17:17 10° ENE night (unlit)
24 Sep - 03:47:47 10° WNW 03:50:52 34° N 03:53:58 10° ENE visible
24 Sep - 05:25:02 10° WNW 05:28:07 33° N 05:31:11 10° ENE visible
24 Sep - 07:01:44 10° WNW 07:05:04 84° SSW 07:08:24 10° ESE daylight
24 Sep - 08:39:30 10° W 08:41:20 14° SW 08:43:08 10° SSW daylight
25 Sep - 01:21:46 10° SW 01:24:59 48° SE 01:28:13 10° ENE night (unlit)
25 Sep - 02:58:33 10° W 03:01:45 41° NNW 03:04:56 10° ENE visible
25 Sep - 04:35:57 10° WNW 04:38:58 30° N 04:41:58 10° ENE visible
25 Sep - 06:12:43 10° WNW 06:16:03 66° NNE 06:19:21 10° ESE visible
25 Sep - 07:49:50 10° W 07:52:30 23° SW 07:55:10 10° SSE daylight
26 Sep - 00:33:06 10° SSW 00:36:02 30° SE 00:39:00 10° ENE night (unlit)
26 Sep - 02:09:20 10° W 02:12:37 54° NNW 02:15:54 10° ENE night (unlit)
26 Sep - 03:46:45 10° WNW 03:49:45 30° N 03:52:45 10° ENE visible
26 Sep - 05:23:41 10° WNW 05:26:56 48° NNE 05:30:10 10° E visible
26 Sep - 07:00:30 10° WNW 07:03:35 36° SW 07:06:40 10° SSE daylight
26 Sep - 23:44:44 10° S 23:47:07 19° SE 23:49:31 10° E night (unlit)
27 Sep - 01:20:09 10° WSW 01:23:30 78° NNW 01:26:50 10° ENE night (unlit)
27 Sep - 02:57:29 10° WNW 03:00:31 31° N 03:03:33 10° ENE visible
27 Sep - 04:34:36 10° WNW 04:37:45 38° NNE 04:40:53 10° E visible
27 Sep - 06:11:17 10° WNW 06:14:35 59° SSW 06:17:51 10° SE visible
27 Sep - 22:57:08 10° SSE 22:58:13 11° SE 22:59:19 10° ESE night (unlit)
28 Sep - 00:31:04 10° SW 00:34:22 69° SSE 00:37:42 10° ENE night (unlit)
28 Sep - 02:08:09 10° W 02:11:15 36° NNW 02:14:23 10° ENE night (unlit)
28 Sep - 03:45:26 10° WNW 03:48:30 32° N 03:51:33 10° ENE visible
28 Sep - 05:22:08 10° WNW 05:25:29 88° NNE 05:28:48 10° ESE visible
28 Sep - 06:59:41 10° W 07:01:46 16° SW 07:03:51 10° S daylight
28 Sep - 23:42:07 10° SW 23:45:17 42° SE 23:48:28 10° ENE night (unlit)
29 Sep - 01:18:47 10° W 01:21:59 44° NNW 01:25:12 10° ENE night (unlit)
29 Sep - 02:56:10 10° WNW 02:59:11 30° N 03:02:11 10° ENE night (unlit)
29 Sep - 04:32:58 10° WNW 04:36:17 61° NNE 04:39:35 10° ESE visible
29 Sep - 06:09:58 10° W 06:12:47 25° SW 06:15:34 10° SSE visible
29 Sep - 22:53:22 10° SSW 22:56:12 26° SE 22:59:03 10° E night (unlit)
30 Sep - 00:29:25 10° WSW 00:32:43 59° NNW 00:36:01 10° ENE night (unlit)
30 Sep - 02:06:49 10° WNW 02:09:50 30° N 02:12:50 10° ENE night (unlit)
30 Sep - 03:43:47 10° WNW 03:47:00 45° NNE 03:50:14 10° E visible
30 Sep - 05:20:32 10° WNW 05:23:42 41° SW 05:26:50 10° SE visible
30 Sep - 22:04:58 10° S 22:07:09 16° SE 22:09:20 10° E night (unlit)
30 Sep - 23:40:07 10° WSW 23:43:27 86° NNW 23:46:48 10° ENE night (unlit)
